Regional Weather Roundup
Issued by NWS

Home | Current Version | Previous Version | Graphics & Text | Print | Product List | Glossary Off
Versions: 1 2 3 4 5 6 7 8 9 10 11 12 13 14 15 16 17 18 19 20 21 22 23 24 25 26 27 28 29 30 31 32 33 34 35 36 37 38 39 40 41 42 43 44 45 46 47 48 49 50

000
ASUS44 KMEG 262000
RWRTN
TENNESSEE HOURLY STATE WEATHER ROUNDUP
NATIONAL WEATHER SERVICE MEMPHIS TN
300 PM CDT WED APR 26 2017

TNZ002-004-019-021-049-052-054-088>092-262100-
WEST TENNESSEE

CITY           SKY/WX    TMP DP  RH WIND       PRES   REMARKS
MEMPHIS INTL   CLOUDY    78  64  61 S14G24    29.57F
NWS MEMPHIS      N/A     78 N/A N/A MISG        N/A
JACKSON        CLOUDY    80  62  54 S16G29    29.60F
DYERSBURG      CLOUDY    79  64  60 S10G17    29.57F
PARIS          MOSUNNY   79  61  53 S13       29.60F
$$

TNZ008-025-027-028-033-062-065-066-262100-
NORTH MIDDLE TENNESSEE

CITY           SKY/WX    TMP DP  RH WIND       PRES   REMARKS
NASHVILLE      MOSUNNY   83  54  36 S12       29.67F
CLARKSVILLE    SUNNY     82  56  40 SW17G23   29.62F
SMYRNA         SUNNY     81  60  48 S8        29.69F
CROSSVILLE     SUNNY     76  52  43 S10G16    29.78R
$$

TNZ061-075-076-078-094-096-097-262100-
SOUTH MIDDLE TENNESSEE

CITY           SKY/WX    TMP DP  RH WIND       PRES   REMARKS
TULLAHOMA      MOSUNNY   79  55  44 S14       29.73F
WINCHESTER     SUNNY     81  59  47 S10       29.73F
COLUMBIA       SUNNY     81  57  44 S8        29.67F
SHELBYVILLE    MOSUNNY   79  63  57 S13       29.71F
$$

TNZ017-018-042-046-047-262100-
NORTHEAST TENNESSEE

CITY           SKY/WX    TMP DP  RH WIND       PRES   REMARKS
TRI CITIES     MOSUNNY   79  56  45 CALM      29.78F
$$

TNZ012-013-036-069-073-074-262100-
CENTRAL EAST TENNESSEE

CITY           SKY/WX    TMP DP  RH WIND       PRES   REMARKS
KNOXVILLE      PTSUNNY   80  59  48 SW6       29.72F
OAK RIDGE      SUNNY     81  54  39 SW6       29.74F
GATLINBURG     SUNNY     79  59  50 VRB5      29.73F
$$

TNZ083-085-099-262100-
SOUTHEAST TENNESSEE

CITY           SKY/WX    TMP DP  RH WIND       PRES   REMARKS
CHATTANOOGA    MOSUNNY   81  58  45 S9        29.74F
$$

SKY/WX REPORTED AS FAIR MEANS FEW OR NO CLOUDS BELOW
12 THOUSAND FEET.




USA.gov is the U.S. government's official web portal to all federal, state and local government web resources and services.